Temperature
17 17 17 17 17 17 17 17 17 17 17 17 17 17 17 17 17 17 17 17 17 17 17 17 17 17 17 18 18 18 18 18 18 18 18 18 18 18 18 18 18 18 18
17 17 17 17 17 17 17 17 17 17 17 17 17 17 17 17 16 16 17 17 17 17 17 17 17 17 17 17 17 18 18 18 18 18 18 18 18 18 18 18 18 18 18
17 17 17 17 17 17 17 17 17 17 17 17 17 16 16 16 16 16 16 17 17 17 17 17 17 17 17 17 17 17 18 18 18 18 17 17 17 18 18 18 18 18 18
16 16 16 16 17 17 17 17 16 16 16 16 16 16 16 16 16 16 16 16 17 17 17 17 17 17 17 17 17 17 17 17 17 17 17 17 17 17 18 18 18 18 18
16 16 16 16 16 16 16 16 16 16 16 16 16 16 16 16 16 16 16 16 16 16 17 17 17 17 17 17 17 17 17 17 17 17 16 17 17 17 17 18 18 18 18
16 16 16 16 16 16 16 16 16 16 16 16 16 16 16 16 16 16 16 16 16 16 16 16 16 17 17 17 17 17 17 17 17 16 16 16 17 17 17 18 18 18 18
16 16 16 16 16 16 16 16 16 16 16 16 16 16 16 16 16 16 16 16 16 16 16 16 16 16 16 17 17 17 17 17 16 16 16 16 16 17 17 17 17 17 17
16 16 16 16 16 16 16 16 16 16 16 16 16 16 16 16 16 16 16 16 16 16 16 16 16 16 16 16 16 17 17 16 16 16 16 16 17 17 17 17 17 17 17
16 16 16 16 16 16 16 16 16 16 16 16 16 16 16 16 16 16 16 16 16 16 16 16 16 16 16 16 16 16 17 17 16 16 16 16 17 17 17 17 17 17 17
16 16 16 16 16 16 16 16 16 16 16 16 16 16 16 16 16 16 16 16 16 16 16 16 16 16 16 16 16 16 16 16 16 16 16 16 17 17 17 17 17 17 17
16 16 16 16 15 15 15 16 15 16 16 16 15 16 16 15 15 15 15 16 16 16 16 16 16 16 16 16 16 16 16 16 16 16 16 16 16 17 17 17 17 17 17
16 16 16 16 16 16 15 15 15 15 15 15 15 15 15 15 15 15 16 16 16 16 16 16 16 16 15 15 16 16 16 15 16 16 16 16 16 16 16 16 16 17 17
16 16 16 16 16 16 16 16 15 15 15 15 15 15 15 15 15 15 15 15 15 15 15 15 15 15 15 15 15 15 15 15 15 15 16 16 16 16 16 16 16 16 16
16 16 16 16 16 16 16 16 16 16 15 15 15 15 15 15 15 15 15 15 15 15 15 15 15 15 15 15 15 15 15 15 15 15 15 16 16 16 16 16 16 16 16
16 16 16 16 16 16 16 16 16 15 16 15 15 15 15 15 15 15 15 15 15 15 15 15 15 15 15 15 15 15 15 15 15 15 15 15 16 16 16 16 16 16 16
16 16 16 16 16 16 16 16 16 15 15 15 15 15 15 15 15 15 15 15 15 15 15 15 15 15 15 15 15 15 15 15 15 15 15 15 15 16 16 16 16 16 16
16 16 16 16 16 16 16 16 16 16 15 15 15 15 15 15 15 15 15 15 15 15 15 15 15 15 15 15 15 15 15 15 15 15 15 15 15 15 16 16 16 16 16
16 16 16 16 16 16 16 16 16 16 16 15 15 15 15 15 15 15 15 15 15 15 15 15 15 15 15 15 15 15 15 15 15 15 15 15 15 15 15 16 16 16 16
16 16 16 16 16 16 16 16 16 16 16 16 15 15 15 15 15 15 15 15 15 15 15 15 14 15 15 14 14 14 14 15 14 14 15 15 15 15 15 15 15 15 15
16 16 16 16 16 16 16 16 16 16 16 15 15 15 15 15 15 15 15 15 15 15 14 14 14 14 14 14 14 14 14 14 14 14 14 14 15 15 15 15 15 15 15
16 16 16 16 16 16 16 15 15 15 15 15 15 15 15 15 15 15 15 15 15 15 14 14 14 14 14 14 14 14 14 14 14 14 14 14 14 14 14 14 15 15 14
17 16 16 16 16 16 16 16 15 15 15 15 15 15 15 15 15 15 15 15 15 15 15 14 14 14 14 14 14 15 15 15 14 14 14 14 14 14 14 14 14 14 14
17 16 16 16 16 16 16 16 15 15 15 15 15 15 15 15 15 15 15 15 15 15 15 15 14 14 14 14 14 15 16 16 15 14 14 14 14 14 14 14 14 14 14
17 17 16 16 16 16 16 16 16 15 15 15 15 15 15 15 15 15 15 15 15 15 15 15 14 14 14 14 14 14 14 15 15 15 14 14 14 14 14 14 14 14 14
17 17 17 16 16 16 16 16 16 15 15 15 15 15 15 15 15 15 15 15 15 15 15 15 15 15 14 14 14 14 14 14 15 15 15 14 14 14 14 14 14 14 14
17 17 17 17 16 16 16 16 16 16 15 15 15 15 15 15 15 15 15 15 15 15 15 15 15 15 14 14 14 14 14 14 14 14 15 14 14 13 14 14 14 14 14
Wind_Speed
3 4 5 6 8 9 10 11 11 11 11 11 11 11 10 10 10 10 9 9 9 8 8 8 8 9 9 8 8 8 8 8 8 8 8 8 8 7 7 6 3 7 8
4 5 6 7 8 9 10 10 11 11 11 10 10 10 10 10 9 9 9 9 8 8 8 8 8 8 8 8 7 7 7 8 7 7 6 7 8 8 7 7 6 7 7
5 6 7 8 8 9 10 11 11 11 11 10 10 9 9 9 9 9 9 8 8 8 8 7 7 7 8 8 7 8 7 7 7 5 2 5 8 9 8 7 7 6 7
6 6 7 9 8 9 10 11 11 11 10 10 10 9 9 9 9 9 8 8 8 8 7 7 7 7 7 7 7 7 7 7 6 2 3 6 7 10 8 7 7 6 6
6 7 9 9 10 10 10 11 10 10 10 10 9 9 9 8 8 8 8 9 8 8 8 8 7 7 7 7 7 7 7 6 3 2 5 6 7 9 8 8 7 6 5
7 8 9 9 10 10 10 10 10 10 9 9 9 8 8 8 9 8 8 9 9 9 8 8 7 7 7 7 7 7 7 5 1 5 5 5 7 8 7 7 6 6 6
8 8 10 10 10 10 10 10 10 10 9 9 9 9 8 8 9 8 9 8 9 9 9 8 9 8 8 8 8 8 7 4 4 5 5 6 7 7 6 6 6 6 6
8 8 9 10 9 9 10 9 9 10 10 10 9 9 9 9 9 9 9 9 9 9 9 9 10 9 9 9 9 9 7 5 5 6 6 6 8 7 6 6 6 6 6
8 8 8 9 10 10 10 10 10 10 10 10 9 9 9 9 9 8 9 9 9 9 10 10 10 10 10 11 10 10 8 7 5 5 5 6 7 6 5 5 5 5 5
7 7 8 8 8 8 10 10 9 9 9 9 9 8 7 7 7 7 8 9 9 9 9 10 10 10 10 11 10 8 6 3 5 5 5 7 8 6 5 5 5 5 5
7 7 7 7 7 7 7 8 7 7 7 5 7 6 3 5 6 6 10 9 9 9 9 10 10 9 9 10 9 6 4 5 5 5 7 9 8 7 6 6 6 5 5
7 6 6 5 6 6 6 6 5 5 5 5 5 5 5 5 5 6 9 8 8 8 9 9 7 6 3 6 6 3 5 6 5 6 8 10 9 8 7 6 6 6 5
6 6 5 5 5 5 4 4 4 4 4 5 5 5 4 4 4 4 4 5 5 4 6 6 4 6 6 6 6 6 7 6 6 7 10 11 10 9 8 7 7 7 6
6 5 5 4 4 4 4 4 3 3 3 3 4 4 4 3 3 4 3 4 4 4 5 5 5 6 7 7 7 7 7 6 6 6 10 12 11 10 9 8 7 7 7
5 5 4 4 3 4 4 3 3 3 3 3 3 3 4 3 3 3 4 4 4 4 4 5 5 7 7 7 7 8 8 7 7 7 8 12 13 13 11 9 9 8 8
6 5 4 3 3 2 3 2 3 3 2 3 3 3 3 3 3 3 4 4 4 4 5 5 6 5 5 6 7 7 7 7 7 7 7 9 13 14 14 12 10 10 10
5 5 5 3 3 3 3 3 3 2 3 3 3 3 4 3 3 3 3 4 4 4 5 5 6 5 5 6 6 6 6 7 7 8 7 7 8 12 15 13 13 12 12
5 6 5 4 3 3 3 2 3 3 3 3 3 3 3 3 3 3 3 4 4 4 4 4 4 4 4 4 5 5 5 5 7 7 7 7 7 8 11 14 13 14 14
6 6 6 5 4 3 3 3 3 3 3 3 3 3 3 3 3 3 2 2 3 3 3 3 3 3 4 4 4 4 4 4 5 6 7 8 8 8 8 10 12 14 14
6 6 6 5 4 4 3 2 3 3 3 3 4 3 4 3 3 3 2 2 3 3 3 3 4 4 3 3 3 4 4 4 4 5 6 6 7 8 9 8 7 10 13
7 7 7 6 5 4 3 2 2 2 2 3 3 4 3 3 3 3 2 2 2 2 2 3 3 4 3 2 1 2 3 4 5 4 5 5 6 7 8 8 7 7 7
8 8 7 7 6 5 3 2 2 2 2 3 3 3 3 3 3 3 2 2 2 2 3 3 2 2 2 0 1 1 1 3 3 4 4 4 5 6 7 8 8 8 8
8 8 7 7 7 6 5 3 2 2 2 3 3 3 3 4 4 3 3 2 2 2 2 2 2 2 1 1 1 2 2 2 2 3 4 4 4 4 4 6 7 7 8
10 8 8 7 7 6 5 4 3 2 2 2 2 2 3 4 4 4 3 3 2 2 2 1 1 0 1 0 0 2 3 2 1 1 2 3 4 5 5 4 5 6 7
10 9 8 8 7 6 5 4 3 2 2 3 3 3 3 4 4 4 3 3 2 2 2 1 1 0 0 1 1 1 1 1 1 1 1 2 2 3 3 4 4 5 6
10 9 8 8 7 6 6 5 4 3 3 3 3 3 3 3 3 4 3 3 3 2 2 2 1 1 1 1 1 1 1 1 1 1 1 1 2 2 3 3 3 4 4
Wind_Direction
91 80 89 104 106 102 100 100 97 95 96 95 93 92 91 88 87 84 81 79 79 77 76 76 73 71 70 69 70 71 72 73 74 74 76 77 74 76 78 75 89 97 85
101 92 95 105 104 101 101 98 97 93 91 89 89 89 88 85 84 81 78 76 78 77 77 76 73 71 69 69 70 71 72 71 72 73 81 94 82 74 74 70 55 69 78
102 103 105 99 99 100 101 99 96 94 91 88 86 86 84 82 81 78 76 73 74 76 78 78 76 72 69 68 72 70 68 69 69 69 84 86 88 78 70 69 70 73 75
106 107 99 99 99 100 99 96 96 93 90 88 85 83 80 77 76 75 74 73 74 77 78 77 75 71 67 67 71 70 67 65 62 39 74 69 75 78 69 66 67 73 76
105 103 99 101 98 97 97 95 95 91 86 83 81 80 76 74 74 72 73 73 73 75 74 72 72 69 67 68 71 71 67 61 55 40 60 65 70 72 64 62 61 65 69
105 102 99 98 96 96 98 96 91 87 85 83 81 80 78 76 77 74 73 73 74 75 72 72 74 75 72 72 74 74 69 62 48 65 62 67 71 71 62 59 58 58 58
101 97 98 95 94 96 94 91 86 82 82 82 79 76 74 74 74 75 72 71 72 74 72 71 73 76 74 73 73 72 69 51 56 69 65 65 66 66 63 60 57 58 54
96 95 101 98 89 93 92 86 82 78 77 79 76 72 71 70 69 71 72 72 73 75 75 75 74 76 74 74 71 66 55 24 66 60 62 62 61 57 61 59 53 55 48
98 95 93 99 100 100 94 83 79 75 74 73 71 69 69 70 69 71 73 72 74 77 78 78 77 78 78 76 72 67 62 41 45 47 53 61 60 53 60 61 52 51 44
103 101 97 90 91 93 98 86 75 70 68 70 70 67 72 89 88 88 88 74 74 77 81 79 78 80 81 77 73 68 59 47 47 44 44 60 57 52 61 62 54 50 45
104 103 101 98 89 84 86 87 85 81 71 80 86 79 71 80 85 94 71 73 75 79 82 80 81 84 89 87 77 66 48 50 56 48 48 52 50 51 58 62 56 50 44
120 114 108 103 95 89 83 87 74 69 64 58 61 67 65 68 68 76 91 82 81 89 94 87 93 107 100 86 89 79 58 54 56 61 57 51 49 50 56 63 60 53 50
127 122 116 107 98 91 90 76 65 64 67 65 62 71 71 78 90 84 93 102 97 102 92 100 102 77 74 67 57 57 50 50 54 58 57 48 44 46 53 63 62 56 52
128 123 117 112 107 97 87 77 68 71 67 62 62 59 63 65 69 73 74 76 80 78 77 81 76 76 74 72 67 62 57 52 56 60 56 47 43 43 48 56 60 55 48
136 132 123 121 106 95 82 70 74 66 54 71 61 57 62 63 69 73 77 81 79 86 94 83 78 75 69 65 63 61 57 52 53 57 60 53 44 42 45 51 55 53 44
143 136 134 130 110 95 95 86 69 61 65 59 61 61 65 67 69 68 79 81 79 82 85 87 83 84 79 72 66 61 53 53 53 57 58 64 57 47 45 48 49 50 45
146 147 145 138 122 108 90 78 77 65 76 70 58 50 61 60 68 71 80 87 87 93 96 90 88 84 85 82 72 64 59 51 51 53 52 47 58 60 49 45 48 48 48
159 155 152 150 135 111 96 91 89 74 67 64 56 38 49 55 62 74 83 89 95 98 99 96 97 93 88 81 72 63 64 57 51 50 53 54 47 48 57 50 46 47 49
171 165 163 159 149 126 107 100 87 85 70 64 58 43 37 48 58 84 82 91 105 106 104 104 97 95 92 86 81 69 60 53 48 48 51 49 50 47 50 62 59 53 48
177 172 166 160 155 139 127 115 107 93 84 73 58 51 46 47 54 81 103 104 107 113 108 106 106 97 94 89 81 77 67 63 55 48 46 48 45 47 43 43 55 64 58
179 177 173 170 160 155 148 151 130 108 102 82 63 55 54 53 53 71 99 102 96 107 118 126 119 118 113 107 103 98 98 72 57 57 46 43 52 47 45 47 45 43 61
182 184 180 177 173 170 165 154 128 112 99 77 73 65 49 52 53 63 86 104 107 117 134 141 145 141 128 177 321 315 145 125 78 57 53 44 44 50 44 44 49 47 43
185 185 185 181 179 177 166 149 134 130 134 106 91 79 54 52 58 60 66 78 96 122 129 144 164 176 174 154 358 333 341 45 87 82 54 54 50 45 46 39 41 46 47
189 187 188 185 185 179 175 177 168 164 136 113 109 97 86 70 68 64 71 73 87 87 115 148 157 214 245 231 98 356 357 11 323 103 101 66 54 46 39 39 35 39 44
187 187 189 184 186 181 185 184 197 176 133 122 121 111 100 84 75 75 72 73 81 86 98 98 104 281 269 321 341 4 29 10 306 351 87 78 73 55 44 35 35 35 37
185 186 185 183 181 180 187 188 191 163 150 141 138 128 120 104 92 85 77 75 76 79 85 82 95 105 13 7 342 347 336 348 18 31 102 105 74 60 53 40 30 36 38
Height
1540 1540 1539 1540 1540 1540 1540 1541 1541 1541 1541 1541 1541 1541 1541 1541 1540 1540 1540 1540 1540 1539 1540 1540 1540 1540 1540 1540 1540 1540 1540 1540 1539 1539 1539 1538 1538 1538 1538 1539 1539 1540 1539
1541 1541 1541 1541 1541 1542 1542 1542 1542 1542 1542 1542 1543 1542 1542 1542 1542 1542 1541 1541 1541 1541 1541 1541 1541 1541 1541 1541 1541 1541 1541 1541 1540 1540 1540 1540 1540 1539 1540 1540 1540 1540 1540
1542 1542 1542 1542 1542 1543 1543 1543 1543 1543 1543 1544 1544 1544 1544 1543 1543 1543 1543 1542 1542 1542 1542 1542 1542 1542 1542 1542 1542 1542 1542 1542 1542 1542 1542 1542 1542 1541 1541 1541 1541 1541 1540
1543 1543 1543 1543 1543 1544 1544 1544 1544 1545 1545 1545 1545 1545 1545 1545 1544 1544 1544 1543 1543 1543 1543 1543 1543 1543 1543 1543 1543 1543 1543 1543 1543 1543 1544 1544 1543 1542 1542 1542 1542 1542 1541
1544 1544 1544 1544 1545 1545 1545 1545 1546 1546 1546 1546 1546 1546 1546 1546 1545 1545 1545 1544 1544 1544 1544 1544 1544 1544 1544 1544 1544 1544 1543 1543 1544 1544 1544 1544 1544 1543 1543 1543 1543 1542 1542
1545 1545 1545 1546 1546 1546 1546 1546 1547 1547 1547 1547 1547 1547 1547 1547 1547 1546 1546 1546 1545 1545 1545 1545 1545 1545 1545 1545 1545 1545 1544 1545 1545 1545 1545 1545 1545 1544 1544 1543 1544 1543 1543
1546 1547 1547 1547 1547 1548 1548 1548 1548 1548 1548 1548 1548 1548 1548 1548 1548 1548 1548 1547 1547 1546 1546 1546 1545 1545 1546 1546 1545 1545 1546 1546 1547 1546 1546 1546 1545 1545 1544 1544 1544 1544 1544
1548 1548 1549 1549 1548 1549 1549 1550 1550 1550 1550 1550 1550 1550 1550 1550 1549 1549 1549 1548 1548 1548 1547 1547 1546 1546 1547 1547 1546 1546 1547 1547 1548 1548 1547 1547 1546 1546 1545 1545 1545 1544 1544
1549 1550 1551 1552 1551 1550 1550 1551 1551 1551 1552 1552 1552 1552 1551 1551 1551 1551 1551 1550 1550 1549 1549 1548 1548 1548 1548 1548 1548 1547 1548 1548 1549 1549 1549 1548 1547 1546 1546 1545 1545 1545 1544
1551 1551 1553 1553 1554 1554 1554 1553 1553 1554 1554 1554 1553 1553 1553 1553 1553 1552 1552 1552 1551 1551 1550 1550 1549 1549 1549 1549 1549 1549 1549 1549 1550 1550 1549 1548 1547 1546 1546 1546 1546 1545 1545
1552 1553 1554 1555 1555 1555 1556 1555 1556 1556 1555 1555 1555 1555 1555 1556 1556 1555 1554 1553 1553 1552 1552 1551 1551 1551 1550 1550 1550 1550 1550 1551 1550 1550 1550 1548 1548 1547 1546 1546 1546 1545 1545
1554 1555 1556 1556 1557 1557 1557 1558 1558 1558 1557 1557 1557 1557 1557 1557 1556 1556 1555 1555 1554 1554 1553 1553 1553 1553 1553 1553 1552 1552 1552 1552 1552 1551 1550 1549 1549 1548 1547 1547 1546 1546 1545
1556 1557 1557 1558 1558 1559 1559 1559 1559 1559 1559 1559 1559 1558 1558 1558 1558 1558 1558 1557 1556 1556 1556 1555 1555 1556 1555 1554 1554 1554 1553 1553 1553 1552 1551 1550 1549 1549 1548 1547 1546 1546 1545
1557 1558 1559 1559 1560 1561 1561 1561 1561 1561 1561 1560 1560 1560 1560 1560 1559 1559 1559 1558 1558 1557 1557 1557 1557 1557 1557 1556 1556 1555 1555 1554 1554 1553 1552 1551 1550 1549 1548 1548 1547 1546 1545
1558 1559 1560 1561 1561 1562 1562 1562 1562 1562 1562 1562 1561 1561 1561 1561 1561 1560 1560 1559 1559 1559 1558 1558 1559 1558 1558 1557 1557 1556 1556 1555 1555 1554 1553 1552 1551 1550 1549 1548 1548 1546 1545
1559 1560 1561 1562 1562 1562 1563 1563 1563 1563 1562 1562 1562 1562 1562 1562 1562 1561 1561 1560 1560 1560 1560 1560 1560 1559 1559 1558 1558 1557 1557 1556 1556 1555 1554 1553 1552 1551 1550 1549 1548 1547 1545
1560 1561 1562 1562 1563 1563 1563 1564 1564 1564 1564 1563 1563 1563 1563 1563 1562 1562 1562 1561 1561 1561 1561 1561 1561 1561 1560 1560 1559 1559 1558 1557 1557 1557 1556 1555 1554 1552 1551 1550 1549 1548 1546
1560 1561 1562 1563 1563 1564 1564 1564 1565 1565 1564 1564 1564 1563 1564 1563 1563 1563 1562 1562 1562 1562 1562 1562 1562 1562 1562 1561 1561 1560 1560 1559 1559 1558 1557 1556 1555 1554 1553 1551 1550 1549 1548
1560 1561 1562 1563 1564 1564 1565 1565 1565 1565 1565 1565 1564 1564 1564 1564 1564 1563 1563 1563 1563 1562 1563 1563 1563 1563 1563 1562 1562 1561 1561 1560 1560 1559 1559 1558 1557 1556 1555 1553 1552 1551 1550
1560 1561 1562 1563 1564 1565 1565 1566 1566 1565 1565 1565 1565 1565 1564 1564 1564 1564 1563 1563 1563 1563 1563 1563 1563 1563 1563 1563 1563 1563 1562 1562 1561 1560 1560 1559 1558 1558 1556 1555 1554 1553 1552
1560 1561 1563 1564 1565 1565 1566 1566 1566 1566 1566 1566 1565 1565 1565 1565 1564 1564 1564 1564 1564 1564 1564 1564 1564 1564 1564 1564 1565 1564 1564 1563 1563 1561 1561 1561 1560 1559 1558 1557 1556 1555 1554
1559 1561 1562 1564 1565 1565 1566 1566 1567 1567 1567 1566 1566 1566 1565 1565 1565 1565 1564 1564 1564 1564 1564 1565 1565 1565 1565 1565 1566 1566 1565 1566 1564 1563 1562 1562 1562 1561 1560 1559 1558 1557 1556
1558 1560 1561 1563 1564 1565 1566 1566 1567 1567 1567 1567 1567 1566 1566 1566 1565 1565 1565 1565 1565 1565 1565 1565 1565 1565 1566 1566 1566 1566 1566 1566 1566 1565 1564 1563 1563 1562 1561 1560 1560 1559 1558
1557 1559 1561 1562 1564 1565 1566 1567 1567 1568 1568 1568 1567 1567 1567 1566 1566 1566 1566 1565 1565 1566 1565 1566 1566 1566 1566 1566 1566 1565 1566 1566 1566 1566 1566 1565 1564 1563 1562 1561 1560 1560 1559
1555 1557 1559 1561 1563 1564 1565 1566 1567 1568 1568 1568 1568 1568 1568 1567 1567 1566 1566 1566 1566 1566 1566 1566 1566 1566 1566 1567 1566 1566 1566 1565 1566 1567 1567 1567 1565 1564 1563 1562 1561 1560 1559
1554 1556 1558 1560 1562 1563 1565 1566 1567 1567 1568 1568 1568 1568 1568 1568 1568 1567 1567 1567 1567 1567 1567 1567 1567 1567 1567 1567 1567 1566 1566 1566 1566 1566 1567 1566 1566 1565 1564 1562 1562 1561 1560